TimeMDT,TemperatureF,Dew PointF,Humidity,Sea Level PressureIn,VisibilityMPH,Wind Direction,Wind SpeedMPH,Gust SpeedMPH,PrecipitationIn,Events,Conditions,WindDirDegrees,DateUTC
12:53 AM,39.0,32.0,76,30.07,10.0,NNE,10.4,-,N/A,,Scattered Clouds,30,2013-03-30 06:53:00
1:53 AM,33.1,28.9,85,30.09,10.0,West,3.5,-,N/A,,Clear,260,2013-03-30 07:53:00
2:53 AM,30.0,27.0,88,30.09,10.0,Calm,Calm,-,N/A,,Clear,0,2013-03-30 08:53:00
3:53 AM,28.9,27.0,92,30.09,10.0,NNW,9.2,-,N/A,,Clear,330,2013-03-30 09:53:00
4:53 AM,28.9,27.0,92,30.09,10.0,NNW,3.5,-,N/A,,Mostly Cloudy,330,2013-03-30 10:53:00
5:53 AM,33.1,30.0,89,30.11,10.0,Calm,Calm,-,0.00,Rain,Light Rain,0,2013-03-30 11:53:00
6:53 AM,35.1,33.1,92,30.11,10.0,NE,3.5,-,0.00,Rain,Light Rain,50,2013-03-30 12:53:00
7:53 AM,36.0,34.0,93,30.13,10.0,Calm,Calm,-,0.00,,Overcast,0,2013-03-30 13:53:00
8:53 AM,36.0,34.0,93,30.14,8.0,West,3.5,-,0.00,Rain,Light Rain,280,2013-03-30 14:53:00
9:16 AM,37.4,35.6,93,30.15,6.0,Calm,Calm,-,0.01,Rain,Light Rain,0,2013-03-30 15:16:00
9:53 AM,36.0,33.1,89,30.17,5.0,NNE,8.1,-,0.03,Rain,Light Rain,20,2013-03-30 15:53:00
10:19 AM,33.8,30.2,87,30.17,1.8,North,8.1,-,0.03,Snow,Light Snow,360,2013-03-30 16:19:00
10:53 AM,34.0,32.0,92,30.20,2.0,Calm,Calm,-,0.09,Snow,Light Snow,0,2013-03-30 16:53:00
11:04 AM,35.6,33.8,93,30.17,6.0,Calm,Calm,-,0.01,Rain,Light Rain,0,2013-03-30 17:04:00
11:28 AM,35.6,33.8,93,30.18,10.0,Calm,Calm,-,0.01,,Overcast,0,2013-03-30 17:28:00
11:48 AM,35.6,33.8,93,30.18,10.0,Calm,Calm,-,0.01,Rain,Light Rain,0,2013-03-30 17:48:00
11:53 AM,36.0,33.1,89,30.20,10.0,Calm,Calm,-,0.01,Rain,Light Rain,0,2013-03-30 17:53:00
12:33 PM,37.4,35.6,93,30.17,10.0,South,4.6,-,0.01,Rain,Light Rain,190,2013-03-30 18:33:00
12:46 PM,39.2,37.4,93,30.17,8.0,South,5.8,-,0.01,,Overcast,190,2013-03-30 18:46:00
12:53 PM,39.9,37.0,89,30.17,8.0,South,5.8,-,0.01,,Overcast,190,2013-03-30 18:53:00
1:53 PM,44.1,37.9,79,30.17,10.0,WSW,9.2,-,N/A,,Overcast,240,2013-03-30 19:53:00
2:21 PM,46.4,37.4,71,30.16,10.0,West,11.5,-,N/A,,Mostly Cloudy,260,2013-03-30 20:21:00
2:53 PM,46.9,35.1,63,30.16,10.0,West,13.8,20.7,0.00,Rain,Light Rain,280,2013-03-30 20:53:00
3:53 PM,50.0,26.1,39,30.14,10.0,NW,18.4,28.8,0.00,,Scattered Clouds,310,2013-03-30 21:53:00
4:53 PM,52.0,26.1,37,30.14,10.0,NNW,15.0,23.0,N/A,,Mostly Cloudy,340,2013-03-30 22:53:00
5:53 PM,50.0,25.0,38,30.14,10.0,NNW,20.7,26.5,N/A,,Scattered Clouds,330,2013-03-30 23:53:00
6:53 PM,46.9,26.1,44,30.15,10.0,NW,10.4,-,N/A,,Clear,320,2013-03-31 00:53:00
7:53 PM,41.0,27.0,57,30.17,10.0,NW,8.1,-,N/A,,Clear,310,2013-03-31 01:53:00
8:53 PM,36.0,26.1,67,30.21,10.0,SW,6.9,-,N/A,,Clear,230,2013-03-31 02:53:00
9:53 PM,34.0,27.0,75,30.22,10.0,WSW,5.8,-,N/A,,Clear,240,2013-03-31 03:53:00
10:53 PM,34.0,27.0,75,30.22,10.0,WSW,6.9,-,N/A,,Clear,250,2013-03-31 04:53:00
11:53 PM,34.0,26.1,73,30.19,10.0,WSW,9.2,-,N/A,,Clear,240,2013-03-31 05:53:00